SCP
0 0 0 0 0 0 0 0 0 0 0 0 0 0 0 0 0 0 0 0 0 0 0 0 0 -0 0 0 0 0 0 0 0 0 0 0 0 0 0 0 0 0 0 0
0 0 0 0 0 0 0 0 0 0 0 0 0 0 0 0 0 -0 0 0 0 0 0 0 0 0 0 0 0 0 0 0 0 0 0 0 0 0 0 0 0 0 0 0
0 -0 -0 0 0 0 0 0 0 0 0 0 0 0 0 0 0 0 0 0 0 0 0 0 0 0 0 0 0 0 0 0 0 0 0 0 0 0 0 0 0 0 0 0
-0 -0 -0 -0 -0 0 0 0 0 0 0 0 0 0 0 0 0 0 0 0 0 0 0 0 0 0 0 0 0 0 0 0 0 0 0 0 0 0 0 0 0 0 0 0
-0 -0 -0 -0 -0 0 0 0 0 0 0 0 0 0 0 0 0 0 0 0 0 0 0 0 0 0 0 0 0 0 0 0 0 0 0 0 0 0 0 0 0 0 0 0
-0 -0 -0 -0 -0 0 0 0 0 0 0 0 0 0 0 0 0 0 0 0 0 0 0 0 0 0 0 0 0 0 0 0 0 0 0 0 0 0 0 0 0 0 0 0
-0 -0 -0 -0 0 0 -0 0 0 0 0 0 0 0 0 0 0 0 0 0 0 0 0 0 0 0 0 0 0 0 0 0 0 0 0 0 0 0 0 0 0 0 0 0
-0 -0 -0 -0 -0 -0 -0 0 0 0 0 0 0 0 0 0 0 0 0 0 0 0 0 0 0 0 0 0 0 0 0 0 0 0 0 0 0 0 0 0 0 0 0 0
-0 -0 -0 -0 -0 -0 0 0 0 0 0 0 0 0 0 0 0 0 0 0 0 0 0 0 0 0 0 0 0 0 0 0 0 0 0 0 0 0 0 0 0 0 0 0
-0 -0 -0 -0 -0 -0 0 0 0 0 0 0 0 0 0 0 0 0 0 0 0 0 0 0 0 0 0 0 0 0 0 0 0 0 0 0 0 0 0 0 0 0 0 0
-0 -0 -0 -0 -0 -0 0 0 0 0 0 0 0 0 0 0 0 0 0 0 0 0 0 0 0 0 0 0 0 0 0 0 0 0 0 0 0 0 0 0 0 0 0 0
-0 -0 -0 -0 -0 -0 0 0 0 0 0 0 0 0 0 0 0 0 0 0 0 0 0 0 0 0 0 0 0 0 0 0 0 0 0 0 0 0 0 0 0 0 0 0
-0 -0 0 0 0 0 0 0 0 0 0 0 0 0 0 0 0 0 0 0 0 0 0 0 0 0 0 0 0 0 0 0 0 0 0 0 0 0 0 0 0 0 0 0
0 0 0 0 0 0 0 0 0 0 0 0 0 0 0 0 0 0 0 0 0 0 0 0 0 0 0 0 0 0 0 0 0 0 0 0 0 0 0 0 0 0 0 0
0 0 0 0 0 0 0 0 0 0 0 0 0 0 0 0 0 0 0 0 0 0 0 0 0 0 0 0 0 0 0 0 0 0 0 0 0 0 0 0 0 0 0 0
0 0 0 0 0 0 0 0 0 0 0 0 0 0 0 0 0 0 0 0 0 0 0 0 0 0 0 0 0 0 0 0 0 0 0 0 0 0 0 0 0 0 0 0
0 0 0 0 0 0 0 0 0 0 0 0 0 0 0 0 0 0 0 0 0 0 0 0 0 0 0 0 0 0 0 0 0 0 0 0 0 0 0 0 0 0 0 0
0 0 0 0 0 0 0 0 0 0 0 0 0 0 0 0 0 0 0 0 0 0 0 0 0 0 0 0 0 0 0 0 0 0 0 0 0 0 0 0 0 0 0 0
0 0 0 0 0 0 0 0 0 0 0 0 0 0 0 0 0 0 0 0 0 0 0 0 0 0 0 0 0 0 0 0 0 0 0 0 0 -0 -0 0 0 0 0 0
0 0 0 0 0 -0 0 0 0 0 0 0 0 0 0 0 0 0 0 0 0 0 0 0 0 0 0 0 0 0 0 0 0 0 0 0 0 -0 -0 0 0 0 0 0
0 0 0 0 -0 0 0 0 0 0 0 0 0 0 0 0 0 0 0 0 0 0 0 0 0 0 0 0 0 0 0 0 0 0 0 0 0 -0 -0 0 0 0 0 0
0 0 -0 0 0 0 -0 -0 -0 0 0 0 0 0 0 0 0 0 0 0 0 0 0 0 0 0 0 0 0 0 0 0 0 0 0 0 0 -0 -0 0 0 -0 -0 -0
0 -0 -0 -0 -0 -0 -0 -0 -0 0 0 0 0 0 0 0 0 0 0 0 0 0 0 0 0 0 0 0 0 0 0 0 0 0 0 0 0 0 0 0 0 0 -0 -0
-0 -0 0 0 -0 0 0 0 0 -0 -0 0 0 0 0 0 0 0 0 0 0 0 0 0 0 0 0 0 0 0 0 0 0 0 0 0 0 0 0 0 0 0 0 -0
0 -0 -0 0 -0 -0 0 0 -0 -0 0 -0 0 0 0 -0 -0 0 0 0 0 0 0 0 0 0 0 0 0 0 0 0 0 0 0 0 0 0 0 0 0 0 0 0
0 -0 0 -0 -0 0 -0 0 0 -0 -0 0 -0 0 0 0 0 0 0 0 0 0 0 0 0 0 0 0 0 0 0 0 0 0 0 0 0 0 0 0 0 -0 0 0
0 0 0 0 0 -0 0 0 -0 -0 -0 0 0 0 0 0 0 0 0 0 0 0 0 0 0 0 0 0 0 0 0 0 0 0 0 0 0 0 0 0 0 -0 -0 0
Wind_Speed_500mb
47 48 50 51 51 41 24 4 5 17 39 7 3 8 10 3 6 4 9 2 10 12 8 9 8 8 10 18 16 19 13 11 6 7 6 7 3 8 10 10 6 3 6 12
46 48 49 50 48 37 29 7 6 22 3 6 3 6 6 6 5 9 7 6 9 5 6 6 1 2 1 22 8 16 14 2 4 12 14 9 8 3 9 11 6 8 10 11
45 47 48 47 44 30 23 6 4 6 7 4 9 4 7 7 10 10 7 5 3 7 1 8 7 4 5 16 11 10 10 7 14 17 14 8 8 7 8 9 8 7 11 7
45 46 47 45 42 26 18 11 3 3 3 4 4 3 4 6 5 4 3 2 1 11 6 3 3 3 10 6 19 7 8 6 2 4 2 8 5 6 8 5 7 7 4 10
43 45 46 44 41 26 16 9 8 8 4 8 3 7 5 5 4 1 4 9 1 8 12 11 15 8 1 4 10 7 8 5 5 10 11 4 8 3 12 9 7 1 12 9
40 42 43 43 40 34 18 16 10 6 11 8 5 2 8 7 6 8 6 13 9 11 7 7 2 5 4 3 1 4 6 9 5 7 6 1 5 5 3 9 7 3 6 5
38 38 38 37 36 33 33 33 11 7 4 3 1 7 5 8 10 5 4 7 5 5 2 4 2 1 4 7 6 4 8 8 5 5 3 8 11 9 20 25 11 11 25 24
35 35 35 32 27 22 23 29 18 8 2 5 8 15 8 10 9 9 7 12 8 5 2 8 9 10 10 5 11 4 2 10 6 10 5 3 9 9 6 5 5 9 21 31
34 33 31 29 24 18 8 20 25 7 1 5 10 7 10 3 8 10 5 10 9 2 8 7 8 9 9 7 4 10 10 11 8 7 12 17 10 7 13 12 1 2 16 13
36 34 31 27 22 16 9 13 21 11 7 3 8 4 3 6 3 2 8 13 5 12 5 5 6 8 6 6 6 5 6 6 13 5 5 8 3 12 5 8 11 24 27 21
35 34 32 27 22 17 11 8 16 19 11 20 8 2 5 6 5 3 6 6 6 7 7 6 5 5 5 3 3 4 10 11 6 6 8 7 11 4 9 13 37 32 26 24
36 33 30 28 23 18 14 8 19 22 16 15 17 21 10 12 7 8 5 4 4 7 8 2 5 3 2 5 5 4 2 9 11 7 8 9 11 31 39 41 40 27 23 17
36 34 30 25 22 19 16 14 18 20 12 20 17 12 16 12 12 8 6 6 5 4 4 12 5 4 7 6 8 6 3 6 8 7 7 6 35 39 36 28 26 17 11 8
39 33 28 23 20 20 16 13 14 17 10 6 6 6 14 15 8 8 12 14 10 6 5 4 5 4 9 7 5 6 7 8 11 5 4 13 14 22 21 17 10 6 9 15
40 34 28 23 19 17 13 4 6 15 12 7 19 18 17 16 12 11 13 15 13 9 2 3 5 6 6 2 3 2 10 13 8 9 34 10 26 19 10 4 5 9 13 17
38 35 28 23 17 11 4 5 4 13 18 9 7 9 11 15 15 13 12 11 10 5 5 5 4 3 3 5 4 7 8 15 15 16 50 18 29 19 8 1 6 10 13 17
37 32 28 22 14 7 4 1 8 14 19 5 13 17 4 15 15 10 9 8 5 5 5 5 5 5 6 5 6 10 20 18 31 45 38 27 26 14 9 5 7 11 16 23
40 29 22 16 8 2 3 3 8 14 10 6 2 8 11 14 9 7 10 9 8 6 4 4 5 6 2 2 10 25 27 35 37 35 13 21 24 17 9 6 7 16 25 30
42 27 17 10 2 1 5 18 18 16 9 6 4 3 6 3 8 8 8 7 1 3 3 4 8 1 6 13 23 46 49 41 35 31 23 19 12 6 2 8 14 25 28 33
35 19 4 4 4 17 19 4 2 4 5 8 8 6 7 4 6 5 4 2 4 2 6 6 4 7 18 15 19 51 52 31 32 32 20 15 4 4 8 15 19 24 31 38
22 13 6 12 18 8 2 3 4 4 4 8 10 12 6 5 1 6 6 2 2 2 7 6 2 6 5 8 19 35 37 22 28 14 12 4 9 13 15 16 22 29 34 41
28 21 18 10 5 3 4 3 5 4 5 4 6 8 10 5 3 2 4 4 2 4 1 3 4 5 11 10 27 31 29 27 21 11 2 8 16 15 16 21 25 29 34 42
12 5 7 6 4 8 1 6 3 6 5 5 13 6 4 3 16 5 2 4 6 1 3 4 6 4 20 34 37 32 25 17 10 3 4 11 12 11 14 21 22 24 31 35
5 5 9 2 5 6 6 5 6 11 13 21 13 3 5 6 5 8 1 1 3 3 1 7 4 21 27 29 25 22 18 12 6 1 6 11 9 6 13 20 22 24 24 36
4 3 5 8 10 15 22 15 14 14 12 16 5 3 9 6 8 2 2 3 4 7 7 5 23 27 21 17 14 11 11 12 9 5 8 7 6 11 18 20 21 18 20 24
5 8 6 10 9 13 7 13 31 17 10 4 3 2 4 3 3 2 4 4 7 6 5 7 25 20 16 15 13 12 13 10 8 10 10 6 6 12 12 16 20 19 20 17
6 9 14 23 24 26 21 33 37 18 3 1 6 6 4 6 2 4 6 7 6 5 4 17 13 10 10 8 8 10 9 9 12 11 8 6 7 3 7 14 21 24 26 30
Wind_Direction_500mb
352 352 351 347 348 351 344 356 71 153 149 99 62 158 203 268 284 300 303 240 224 193 146 179 211 213 231 334 167 169 206 151 235 246 330 276 164 117 136 117 230 113 145 275
354 355 355 353 353 355 358 14 83 168 147 144 255 270 269 238 248 231 226 259 207 32 126 138 186 267 210 16 137 169 186 218 11 2 354 352 74 112 93 103 75 192 138 263
356 358 360 359 357 358 359 354 70 133 230 90 122 74 267 266 264 242 239 278 148 103 109 27 161 349 311 356 32 56 111 114 166 197 198 155 166 189 161 127 109 182 226 275
357 360 2 5 2 1 9 20 47 53 251 346 50 59 320 256 290 355 31 79 303 145 160 77 131 344 323 355 15 46 95 121 76 359 113 148 154 190 164 162 147 152 238 131
358 1 4 10 11 11 31 35 22 2 18 321 22 80 263 270 162 312 256 163 70 139 161 188 193 152 163 250 337 71 349 155 121 357 355 111 108 132 109 61 39 217 112 86
359 2 6 9 17 24 42 27 18 2 3 353 95 260 287 306 292 43 76 132 87 80 169 175 90 207 178 192 143 53 65 122 98 206 9 171 349 255 93 105 58 198 184 58
358 0 6 11 16 24 30 24 20 8 302 52 301 325 286 334 323 224 55 48 111 121 329 152 116 98 299 248 251 171 122 96 87 151 56 217 301 79 108 102 53 31 98 92
358 359 3 10 17 22 21 21 19 12 334 308 320 341 344 345 34 39 62 37 20 327 41 57 34 348 6 321 54 280 82 126 96 140 148 18 299 245 197 139 9 355 116 125
355 356 360 6 10 15 357 11 13 357 52 283 321 322 6 13 345 356 25 25 22 32 71 70 151 213 222 285 313 60 64 60 127 145 154 196 224 135 39 126 124 276 128 129
352 352 354 359 4 4 351 358 4 355 305 281 1 25 306 351 7 257 317 338 360 26 69 88 163 243 214 225 222 197 50 27 168 167 168 286 269 311 119 129 207 142 131 127
350 349 348 352 355 351 344 289 335 350 304 287 256 303 10 355 3 127 332 16 328 44 74 134 212 183 249 360 287 200 173 138 167 99 96 215 16 356 164 146 124 125 112 104
347 347 347 346 347 342 338 320 317 318 282 276 277 259 276 265 270 316 303 268 247 195 92 165 112 184 60 147 232 26 275 183 155 171 192 314 65 107 116 125 121 118 109 102
349 346 344 344 340 336 332 335 339 337 303 296 284 258 241 226 237 257 294 279 256 238 188 154 157 163 131 170 238 132 66 158 95 85 301 57 103 106 108 107 103 100 75 35
353 347 342 341 336 329 331 332 354 359 322 319 281 302 200 207 216 256 278 278 242 215 200 130 138 158 186 200 193 154 186 112 131 62 52 114 120 119 116 110 93 47 355 340
349 347 340 335 331 323 328 289 344 4 4 290 292 295 207 227 230 252 268 259 236 224 194 89 223 166 130 27 84 223 185 160 154 200 182 153 167 149 134 106 2 336 330 324
341 340 336 330 329 323 295 283 297 340 351 312 316 289 250 216 215 245 268 249 225 207 207 214 219 176 155 106 199 264 206 172 138 146 165 142 151 155 162 268 329 328 315 312
341 336 332 329 329 316 235 272 313 328 331 295 306 313 312 183 198 222 233 230 221 226 194 219 191 170 154 108 174 200 140 135 129 141 141 136 161 173 193 259 287 289 301 309
338 329 327 329 334 25 124 338 313 323 314 277 276 275 319 188 194 204 200 204 205 212 217 186 190 148 90 222 230 163 147 138 145 156 147 146 165 183 195 223 261 297 310 313
337 322 311 297 318 34 295 303 287 281 261 287 230 235 257 217 204 198 182 203 75 239 184 234 138 320 215 226 194 177 171 171 175 169 165 159 163 143 206 294 302 310 318 319
335 330 310 236 268 317 309 303 264 224 219 233 250 251 267 279 194 186 156 185 185 169 251 139 119 244 238 218 223 197 185 175 171 162 173 176 138 19 316 312 320 327 327 326
346 334 295 304 309 317 290 266 227 195 260 222 246 243 273 318 149 212 197 215 136 135 262 139 255 274 267 282 222 198 186 179 166 167 145 101 16 348 330 331 332 332 331 332
327 310 306 331 355 329 353 289 293 214 261 280 258 302 239 264 281 81 218 159 26 216 152 99 255 267 356 127 146 149 155 154 153 155 111 360 347 344 343 340 339 334 336 339
327 338 329 336 349 28 316 352 12 295 248 295 329 309 337 72 13 299 148 153 221 112 58 239 236 348 125 128 128 130 138 151 152 123 351 338 338 341 346 341 340 341 343 360
320 343 324 128 289 246 222 234 253 277 279 324 0 135 70 61 66 267 226 293 81 44 301 241 239 155 143 139 137 140 146 157 168 158 339 323 312 329 346 337 334 343 352 358
277 268 240 232 256 274 284 299 317 309 296 7 58 73 188 204 250 275 83 69 280 208 234 235 175 164 163 165 165 187 210 200 202 245 294 276 281 320 332 335 339 340 351 7
248 237 268 260 284 293 313 312 333 334 287 307 63 50 343 326 5 318 223 166 227 261 224 171 166 176 199 216 230 204 196 207 220 254 271 262 286 322 345 352 352 341 338 330
247 257 259 268 281 275 292 315 317 311 242 131 70 16 265 317 315 254 185 207 223 243 164 170 198 253 231 208 215 214 208 245 259 252 240 235 270 253 340 356 6 354 337 335
Wind_Speed_850mb
47 48 50 51 51 41 24 4 5 17 39 7 3 8 10 3 6 4 9 2 10 12 8 9 8 8 10 18 16 19 13 11 6 7 6 7 3 8 10 10 6 3 6 12
46 48 49 50 48 37 29 7 6 22 3 6 3 6 6 6 5 9 7 6 9 5 6 6 1 2 1 22 8 16 14 2 4 12 14 9 8 3 9 11 6 8 10 11
45 47 48 47 44 30 23 6 4 6 7 4 9 4 7 7 10 10 7 5 3 7 1 8 7 4 5 16 11 10 10 7 14 17 14 8 8 7 8 9 8 7 11 7
45 46 47 45 42 26 18 11 3 3 3 4 4 3 4 6 5 4 3 2 1 11 6 3 3 3 10 6 19 7 8 6 2 4 2 8 5 6 8 5 7 7 4 10
43 45 46 44 41 26 16 9 8 8 4 8 3 7 5 5 4 1 4 9 1 8 12 11 15 8 1 4 10 7 8 5 5 10 11 4 8 3 12 9 7 1 12 9
40 42 43 43 40 34 18 16 10 6 11 8 5 2 8 7 6 8 6 13 9 11 7 7 2 5 4 3 1 4 6 9 5 7 6 1 5 5 3 9 7 3 6 5
38 38 38 37 36 33 33 33 11 7 4 3 1 7 5 8 10 5 4 7 5 5 2 4 2 1 4 7 6 4 8 8 5 5 3 8 11 9 20 25 11 11 25 24
35 35 35 32 27 22 23 29 18 8 2 5 8 15 8 10 9 9 7 12 8 5 2 8 9 10 10 5 11 4 2 10 6 10 5 3 9 9 6 5 5 9 21 31
34 33 31 29 24 18 8 20 25 7 1 5 10 7 10 3 8 10 5 10 9 2 8 7 8 9 9 7 4 10 10 11 8 7 12 17 10 7 13 12 1 2 16 13
36 34 31 27 22 16 9 13 21 11 7 3 8 4 3 6 3 2 8 13 5 12 5 5 6 8 6 6 6 5 6 6 13 5 5 8 3 12 5 8 11 24 27 21
35 34 32 27 22 17 11 8 16 19 11 20 8 2 5 6 5 3 6 6 6 7 7 6 5 5 5 3 3 4 10 11 6 6 8 7 11 4 9 13 37 32 26 24
36 33 30 28 23 18 14 8 19 22 16 15 17 21 10 12 7 8 5 4 4 7 8 2 5 3 2 5 5 4 2 9 11 7 8 9 11 31 39 41 40 27 23 17
36 34 30 25 22 19 16 14 18 20 12 20 17 12 16 12 12 8 6 6 5 4 4 12 5 4 7 6 8 6 3 6 8 7 7 6 35 39 36 28 26 17 11 8
39 33 28 23 20 20 16 13 14 17 10 6 6 6 14 15 8 8 12 14 10 6 5 4 5 4 9 7 5 6 7 8 11 5 4 13 14 22 21 17 10 6 9 15
40 34 28 23 19 17 13 4 6 15 12 7 19 18 17 16 12 11 13 15 13 9 2 3 5 6 6 2 3 2 10 13 8 9 34 10 26 19 10 4 5 9 13 17
38 35 28 23 17 11 4 5 4 13 18 9 7 9 11 15 15 13 12 11 10 5 5 5 4 3 3 5 4 7 8 15 15 16 50 18 29 19 8 1 6 10 13 17
37 32 28 22 14 7 4 1 8 14 19 5 13 17 4 15 15 10 9 8 5 5 5 5 5 5 6 5 6 10 20 18 31 45 38 27 26 14 9 5 7 11 16 23
40 29 22 16 8 2 3 3 8 14 10 6 2 8 11 14 9 7 10 9 8 6 4 4 5 6 2 2 10 25 27 35 37 35 13 21 24 17 9 6 7 16 25 30
42 27 17 10 2 1 5 18 18 16 9 6 4 3 6 3 8 8 8 7 1 3 3 4 8 1 6 13 23 46 49 41 35 31 23 19 12 6 2 8 14 25 28 33
35 19 4 4 4 17 19 4 2 4 5 8 8 6 7 4 6 5 4 2 4 2 6 6 4 7 18 15 19 51 52 31 32 32 20 15 4 4 8 15 19 24 31 38
22 13 6 12 18 8 2 3 4 4 4 8 10 12 6 5 1 6 6 2 2 2 7 6 2 6 5 8 19 35 37 22 28 14 12 4 9 13 15 16 22 29 34 41
28 21 18 10 5 3 4 3 5 4 5 4 6 8 10 5 3 2 4 4 2 4 1 3 4 5 11 10 27 31 29 27 21 11 2 8 16 15 16 21 25 29 34 42
12 5 7 6 4 8 1 6 3 6 5 5 13 6 4 3 16 5 2 4 6 1 3 4 6 4 20 34 37 32 25 17 10 3 4 11 12 11 14 21 22 24 31 35
5 5 9 2 5 6 6 5 6 11 13 21 13 3 5 6 5 8 1 1 3 3 1 7 4 21 27 29 25 22 18 12 6 1 6 11 9 6 13 20 22 24 24 36
4 3 5 8 10 15 22 15 14 14 12 16 5 3 9 6 8 2 2 3 4 7 7 5 23 27 21 17 14 11 11 12 9 5 8 7 6 11 18 20 21 18 20 24
5 8 6 10 9 13 7 13 31 17 10 4 3 2 4 3 3 2 4 4 7 6 5 7 25 20 16 15 13 12 13 10 8 10 10 6 6 12 12 16 20 19 20 17
6 9 14 23 24 26 21 33 37 18 3 1 6 6 4 6 2 4 6 7 6 5 4 17 13 10 10 8 8 10 9 9 12 11 8 6 7 3 7 14 21 24 26 30
Wind_Direction_850mb
352 352 351 347 348 351 344 356 71 153 149 99 62 158 203 268 284 300 303 240 224 193 146 179 211 213 231 334 167 169 206 151 235 246 330 276 164 117 136 117 230 113 145 275
354 355 355 353 353 355 358 14 83 168 147 144 255 270 269 238 248 231 226 259 207 32 126 138 186 267 210 16 137 169 186 218 11 2 354 352 74 112 93 103 75 192 138 263
356 358 360 359 357 358 359 354 70 133 230 90 122 74 267 266 264 242 239 278 148 103 109 27 161 349 311 356 32 56 111 114 166 197 198 155 166 189 161 127 109 182 226 275
357 360 2 5 2 1 9 20 47 53 251 346 50 59 320 256 290 355 31 79 303 145 160 77 131 344 323 355 15 46 95 121 76 359 113 148 154 190 164 162 147 152 238 131
358 1 4 10 11 11 31 35 22 2 18 321 22 80 263 270 162 312 256 163 70 139 161 188 193 152 163 250 337 71 349 155 121 357 355 111 108 132 109 61 39 217 112 86
359 2 6 9 17 24 42 27 18 2 3 353 95 260 287 306 292 43 76 132 87 80 169 175 90 207 178 192 143 53 65 122 98 206 9 171 349 255 93 105 58 198 184 58
358 0 6 11 16 24 30 24 20 8 302 52 301 325 286 334 323 224 55 48 111 121 329 152 116 98 299 248 251 171 122 96 87 151 56 217 301 79 108 102 53 31 98 92
358 359 3 10 17 22 21 21 19 12 334 308 320 341 344 345 34 39 62 37 20 327 41 57 34 348 6 321 54 280 82 126 96 140 148 18 299 245 197 139 9 355 116 125
355 356 360 6 10 15 357 11 13 357 52 283 321 322 6 13 345 356 25 25 22 32 71 70 151 213 222 285 313 60 64 60 127 145 154 196 224 135 39 126 124 276 128 129
352 352 354 359 4 4 351 358 4 355 305 281 1 25 306 351 7 257 317 338 360 26 69 88 163 243 214 225 222 197 50 27 168 167 168 286 269 311 119 129 207 142 131 127
350 349 348 352 355 351 344 289 335 350 304 287 256 303 10 355 3 127 332 16 328 44 74 134 212 183 249 360 287 200 173 138 167 99 96 215 16 356 164 146 124 125 112 104
347 347 347 346 347 342 338 320 317 318 282 276 277 259 276 265 270 316 303 268 247 195 92 165 112 184 60 147 232 26 275 183 155 171 192 314 65 107 116 125 121 118 109 102
349 346 344 344 340 336 332 335 339 337 303 296 284 258 241 226 237 257 294 279 256 238 188 154 157 163 131 170 238 132 66 158 95 85 301 57 103 106 108 107 103 100 75 35
353 347 342 341 336 329 331 332 354 359 322 319 281 302 200 207 216 256 278 278 242 215 200 130 138 158 186 200 193 154 186 112 131 62 52 114 120 119 116 110 93 47 355 340
349 347 340 335 331 323 328 289 344 4 4 290 292 295 207 227 230 252 268 259 236 224 194 89 223 166 130 27 84 223 185 160 154 200 182 153 167 149 134 106 2 336 330 324
341 340 336 330 329 323 295 283 297 340 351 312 316 289 250 216 215 245 268 249 225 207 207 214 219 176 155 106 199 264 206 172 138 146 165 142 151 155 162 268 329 328 315 312
341 336 332 329 329 316 235 272 313 328 331 295 306 313 312 183 198 222 233 230 221 226 194 219 191 170 154 108 174 200 140 135 129 141 141 136 161 173 193 259 287 289 301 309
338 329 327 329 334 25 124 338 313 323 314 277 276 275 319 188 194 204 200 204 205 212 217 186 190 148 90 222 230 163 147 138 145 156 147 146 165 183 195 223 261 297 310 313
337 322 311 297 318 34 295 303 287 281 261 287 230 235 257 217 204 198 182 203 75 239 184 234 138 320 215 226 194 177 171 171 175 169 165 159 163 143 206 294 302 310 318 319
335 330 310 236 268 317 309 303 264 224 219 233 250 251 267 279 194 186 156 185 185 169 251 139 119 244 238 218 223 197 185 175 171 162 173 176 138 19 316 312 320 327 327 326
346 334 295 304 309 317 290 266 227 195 260 222 246 243 273 318 149 212 197 215 136 135 262 139 255 274 267 282 222 198 186 179 166 167 145 101 16 348 330 331 332 332 331 332
327 310 306 331 355 329 353 289 293 214 261 280 258 302 239 264 281 81 218 159 26 216 152 99 255 267 356 127 146 149 155 154 153 155 111 360 347 344 343 340 339 334 336 339
327 338 329 336 349 28 316 352 12 295 248 295 329 309 337 72 13 299 148 153 221 112 58 239 236 348 125 128 128 130 138 151 152 123 351 338 338 341 346 341 340 341 343 360
320 343 324 128 289 246 222 234 253 277 279 324 0 135 70 61 66 267 226 293 81 44 301 241 239 155 143 139 137 140 146 157 168 158 339 323 312 329 346 337 334 343 352 358
277 268 240 232 256 274 284 299 317 309 296 7 58 73 188 204 250 275 83 69 280 208 234 235 175 164 163 165 165 187 210 200 202 245 294 276 281 320 332 335 339 340 351 7
248 237 268 260 284 293 313 312 333 334 287 307 63 50 343 326 5 318 223 166 227 261 224 171 166 176 199 216 230 204 196 207 220 254 271 262 286 322 345 352 352 341 338 330
247 257 259 268 281 275 292 315 317 311 242 131 70 16 265 317 315 254 185 207 223 243 164 170 198 253 231 208 215 214 208 245 259 252 240 235 270 253 340 356 6 354 337 335